User: anonymous   Login
Location: Unspecified
(0.0000°N, 0.0000°E)
Time: 08:42:02
(UTC+01:00)
Language:

ARIANE 5 R/B - Orbit

View from above orbital plane
View from above orbital plane
View from above satellite
View from above satellite

Ground track
Ground track

The orbit data is extracted from the following two-line orbital elements,

1 28787U 05028B   16343.42145752 -.00000006  00000-0 -53746-3 0  9990
2 28787   6.9368 109.5064 7151479  57.1343 357.2932  2.26564998 93798
Epoch (UTC): 08 December 2016 10:06:53
Eccentricity: 0.7151479
inclination: 6.9368°
perigee height: 597 km
apogee height: 35621 km
right ascension of ascending node: 109.5064°
argument of perigee: 57.1343°
revolutions per day: 2.26564998
mean anomaly at epoch: 357.2932°
orbit number at epoch: 9379

The dashed part of the orbit path shows where the satellite is in the earth's shadow,  

DLR